SCP
0 0 0 0 0 0 0 0 0 0 0 0 0 0 0 0 0 0 0 0 0 0 0 0 0 0 0 0 0 0 0 0 0 0 0 0 0 0 0 0 0 0 0 0
0 0 0 0 0 0 0 0 0 0 0 0 0 0 0 0 0 0 0 0 0 0 0 0 0 0 0 0 0 0 0 0 0 0 0 0 0 0 0 0 0 0 0 0
0 0 0 0 0 0 0 0 0 0 0 0 0 0 0 0 0 0 0 0 0 0 0 0 0 0 0 0 0 0 0 0 0 0 0 0 0 0 0 0 0 0 0 0
0 0 0 0 0 0 0 0 0 0 0 0 0 0 0 0 -0 0 0 0 0 0 0 0 0 0 0 0 0 0 0 0 0 0 0 0 0 0 0 0 0 0 0 0
0 0 0 0 0 0 0 0 0 0 0 0 0 0 0 -0 -0 0 0 0 0 0 0 0 0 0 0 0 0 0 0 0 0 0 0 0 0 0 0 0 0 0 0 0
0 0 0 0 0 0 0 0 0 0 0 0 0 0 0 0 -0 0 0 0 0 0 0 0 0 0 0 0 0 0 0 0 0 0 0 0 0 0 0 0 0 0 0 0
0 0 0 0 0 0 0 0 0 0 0 0 0 0 0 0 0 0 0 0 0 0 0 0 0 0 0 0 0 0 0 0 0 0 0 0 0 0 0 0 0 0 0 0
0 0 0 0 0 0 0 0 0 0 0 0 0 0 0 0 0 0 0 0 0 0 0 0 0 0 0 0 0 0 0 0 0 0 0 0 0 0 0 0 0 0 0 0
0 0 0 0 0 0 0 0 0 0 0 0 0 0 0 0 0 0 0 0 0 0 0 0 0 0 0 0 0 0 0 0 0 0 0 0 0 0 0 0 0 0 0 0
0 0 0 0 0 0 0 0 0 0 0 0 0 0 0 0 0 0 0 0 0 0 0 0 0 0 0 0 0 0 0 0 0 0 0 0 0 0 0 0 0 0 0 0
0 0 0 0 0 0 0 0 0 0 0 0 0 0 0 0 0 0 0 0 0 0 0 0 0 0 -0 0 0 0 0 0 0 0 0 0 0 0 0 0 0 0 0 0
0 0 0 0 0 0 0 0 0 0 0 0 0 0 0 0 0 0 0 0 0 0 0 0 0 0 -0 0 0 0 0 0 0 0 0 0 0 0 0 0 0 0 0 0
0 0 0 0 0 0 0 0 0 0 0 0 0 0 0 0 0 0 0 0 0 0 0 0 0 0 -0 0 0 0 0 0 0 0 0 0 0 0 0 0 0 0 0 0
0 0 0 0 0 0 0 0 0 0 0 0 0 0 0 0 0 0 0 0 0 0 0 0 0 -0 -0 -0 0 -0 0 0 0 0 0 0 0 0 0 0 0 0 0 0
0 0 0 0 0 0 -0 0 0 0 0 0 0 0 0 0 0 0 0 0 0 0 0 0 0 -0 -0 -0 0 -0 -0 -0 0 0 0 0 0 0 0 0 0 0 0 0
0 0 0 0 0 -0 -0 0 0 0 0 0 0 0 0 0 0 0 0 0 0 0 0 0 0 0 0 0 0 0 -0 -0 0 0 0 0 0 0 0 0 0 0 0 0
0 0 0 0 0 0 -0 0 0 0 0 0 0 0 0 0 0 0 0 0 0 0 0 0 0 0 0 0 0 0 -0 -0 0 0 0 0 0 0 0 0 0 0 0 0
0 0 0 0 0 0 0 0 0 0 0 0 0 0 0 0 0 0 0 0 0 0 0 0 0 0 0 0 0 0 0 -0 0 0 0 0 0 0 0 0 0 0 0 0
0 0 0 0 0 0 0 0 0 0 0 0 0 0 0 0 0 0 0 0 0 0 0 0 0 0 0 0 0 0 0 0 -0 0 0 0 0 0 0 0 0 0 0 0
0 0 0 0 0 0 0 0 0 0 0 0 0 0 0 0 0 0 0 0 0 0 0 0 0 0 0 0 0 0 0 0 0 0 0 0 0 0 0 0 0 0 0 0
0 0 0 0 0 0 0 0 0 0 0 0 0 0 0 0 0 0 0 0 0 0 0 0 0 0 0 0 0 0 0 0 0 0 0 0 0 0 0 0 0 0 0 0
0 0 0 0 0 0 0 0 0 0 0 0 0 0 0 0 0 0 0 0 0 0 0 0 0 0 0 0 0 0 0 0 0 0 0 0 0 0 0 0 0 0 0 0
0 0 0 0 0 0 0 0 0 0 0 0 0 0 0 0 0 0 0 0 0 0 0 0 0 0 0 0 0 0 0 0 0 0 0 0 0 0 0 0 0 0 0 0
0 0 0 0 0 0 0 0 0 0 0 0 0 0 0 0 0 0 0 0 0 0 0 0 0 0 0 0 0 0 0 0 0 0 0 0 0 0 0 0 0 0 0 0
0 0 0 0 0 0 0 0 0 0 0 0 0 0 0 0 0 0 0 0 0 0 0 0 0 0 0 0 0 0 0 0 0 0 0 0 0 0 0 0 0 0 0 0
0 0 0 0 0 0 0 0 0 0 0 0 0 0 0 0 0 0 0 0 0 0 0 0 0 0 0 0 0 0 0 0 0 0 0 0 0 0 0 0 0 0 0 0
Wind_Speed
5 6 6 5 4 4 5 5 4 2 2 2 3 6 7 5 7 8 8 7 7 6 4 3 3 2 1 1 1 2 4 4 4 3 3 3 3 4 4 4 6 7 7 7
6 7 4 3 4 6 5 6 4 2 2 2 4 8 7 6 7 7 7 8 7 6 5 4 4 3 2 1 0 1 2 3 4 3 3 2 3 3 3 4 5 7 7 7
8 4 2 4 6 6 5 3 3 2 2 1 5 6 4 4 5 5 7 7 7 7 7 6 5 4 3 2 1 1 1 2 3 3 2 1 1 1 2 3 4 6 7 7
8 4 3 5 5 2 4 2 2 1 1 0 3 4 3 3 4 5 6 6 7 7 7 6 6 5 4 3 2 2 1 1 1 1 1 2 2 2 3 3 3 5 5 6
5 3 4 4 3 2 4 2 1 0 0 2 2 4 5 3 5 5 5 6 6 6 6 7 6 6 5 4 3 3 2 2 1 1 1 2 2 2 2 3 4 4 4 5
5 2 3 3 3 2 3 3 2 1 2 3 1 4 5 3 4 3 3 4 5 5 6 6 6 5 5 4 4 4 4 3 2 2 2 2 2 2 2 3 3 3 3 4
4 3 2 1 2 2 1 2 1 2 2 2 2 5 8 3 3 4 4 3 3 4 5 6 6 6 6 6 5 5 5 4 4 3 3 2 3 2 3 3 3 3 3 3
2 2 2 1 1 0 1 2 2 2 2 2 3 7 5 1 3 5 5 4 3 3 4 5 6 6 6 6 6 6 6 6 5 4 4 3 3 2 2 3 3 3 3 3
1 2 2 1 1 1 2 1 2 1 1 5 4 6 7 2 3 3 3 3 2 2 3 4 5 6 6 7 7 7 7 7 6 5 4 4 4 3 3 3 3 3 3 3
1 1 1 0 2 2 2 2 2 2 3 4 4 5 3 1 1 1 2 2 2 3 4 5 5 6 6 6 6 7 8 7 6 6 5 4 4 4 4 3 3 3 3 3
0 1 1 2 3 3 4 3 2 1 2 4 5 3 1 2 1 2 2 3 4 5 6 6 5 5 6 6 6 6 7 7 6 6 6 6 5 4 4 4 4 3 3 3
1 1 2 2 1 2 3 3 4 3 3 4 5 6 3 2 2 3 4 5 7 7 7 6 6 5 5 6 6 7 7 7 7 7 6 6 5 5 5 4 4 4 4 4
2 2 2 2 3 3 4 4 5 3 2 5 6 6 4 1 2 4 7 9 8 7 7 6 6 6 6 6 6 7 7 7 7 6 6 6 6 6 5 5 4 4 4 4
2 4 5 5 1 2 5 6 8 8 6 7 11 12 7 7 10 11 11 10 9 8 7 7 7 6 6 6 6 6 7 7 7 7 7 7 7 6 6 5 4 4 4 4
3 5 5 9 8 8 11 12 12 15 14 12 11 13 15 13 12 11 10 9 9 8 8 7 7 7 7 7 6 6 6 6 7 7 8 8 7 6 6 5 5 4 4 4
2 4 4 7 6 8 13 16 16 17 18 19 20 20 14 9 7 8 8 8 9 9 8 8 8 8 8 7 7 6 6 6 7 8 8 7 7 6 6 6 5 5 5 5
3 3 3 5 4 8 11 10 12 10 11 12 14 12 7 8 8 9 9 9 8 8 9 9 9 8 8 7 7 7 6 6 7 8 7 7 7 7 7 6 6 6 6 5
4 3 3 6 6 8 1 2 5 8 9 12 12 11 10 10 10 10 10 8 8 9 10 10 9 9 8 7 6 6 6 6 7 8 8 7 7 7 6 6 7 6 5 5
6 5 4 4 6 10 6 3 5 6 6 7 11 11 9 8 9 8 5 5 8 10 10 10 9 9 8 7 6 6 6 7 7 8 8 8 7 7 7 7 7 6 5 5
4 5 5 5 6 7 1 3 2 3 4 1 3 5 7 6 8 7 4 8 11 11 10 9 9 8 8 7 5 6 7 7 9 8 8 7 7 8 8 8 7 6 5 5
5 6 8 8 8 10 5 3 4 4 2 1 3 6 8 8 10 12 12 12 11 11 11 10 9 8 7 6 5 7 8 9 8 7 7 7 7 8 7 6 6 5 5 5
8 8 8 7 9 10 4 6 6 4 4 5 8 9 10 12 13 13 13 13 12 11 10 9 8 8 7 6 6 8 9 8 6 6 7 7 7 6 6 6 6 6 5 6
9 9 6 10 10 2 4 6 5 5 8 9 9 11 12 13 14 13 13 12 12 11 10 8 8 9 8 6 7 9 8 6 6 6 7 7 7 6 6 6 6 6 5 5
6 5 7 9 12 11 10 10 9 9 11 12 12 12 12 13 14 14 12 11 11 10 9 8 8 9 9 7 8 9 7 6 6 7 7 6 7 6 6 6 6 5 6 6
6 6 8 12 12 11 9 8 9 9 10 11 12 11 11 12 13 12 11 11 10 9 8 7 8 9 10 8 8 7 6 6 7 7 7 6 6 6 6 6 6 7 7 6
9 12 11 12 10 9 10 8 9 10 11 11 11 11 10 10 11 11 11 10 9 9 8 8 9 9 10 9 8 7 6 7 7 7 7 6 5 5 5 5 5 8 8 9
Wind_Direction
38 74 75 61 46 94 124 128 116 86 34 314 260 268 266 240 232 235 232 225 221 219 205 187 180 167 151 94 38 27 17 15 9 2 356 358 9 7 11 10 8 3 1 358
92 67 53 71 88 101 108 116 103 91 37 322 303 283 270 242 234 237 235 228 225 218 201 192 192 189 194 193 49 21 17 13 14 9 355 346 341 348 360 360 5 3 1 360
85 71 69 99 91 92 70 87 96 66 351 158 304 269 223 199 219 233 238 235 229 221 214 201 199 204 208 216 234 310 352 1 10 4 357 345 330 312 343 356 358 0 0 1
72 53 88 90 68 52 93 82 110 106 292 328 335 290 238 204 231 225 226 224 224 217 217 210 206 209 212 219 219 229 259 307 340 344 343 344 332 332 340 338 342 349 358 360
81 54 58 67 47 31 92 111 110 82 350 271 208 256 259 198 231 214 212 219 223 217 216 216 214 216 218 216 214 220 229 247 264 277 292 300 307 322 327 330 336 345 354 358
83 70 35 57 65 66 124 149 134 159 237 251 202 249 262 206 219 206 199 217 224 220 220 224 222 221 222 216 216 221 225 235 241 243 253 268 288 303 313 327 333 337 340 344
84 81 56 28 126 113 191 243 228 215 225 239 124 249 257 254 240 245 256 258 246 226 223 224 222 221 222 221 221 222 226 231 232 234 237 246 258 269 284 305 316 320 325 332
108 103 52 21 356 70 88 313 321 299 302 310 198 247 262 312 273 260 256 258 255 237 228 229 232 232 232 230 227 225 227 231 228 229 232 239 245 252 265 279 290 300 307 316
89 105 72 34 4 293 151 114 5 320 293 273 253 266 282 214 228 223 224 229 244 260 252 246 242 239 238 236 232 229 228 230 227 226 229 234 236 241 254 266 276 286 295 306
25 142 142 97 165 65 351 136 176 214 280 285 280 262 262 216 175 173 212 260 297 298 284 271 259 251 246 241 238 232 230 230 227 223 223 228 230 235 245 255 266 278 290 298
7 193 167 199 219 199 166 179 198 200 284 283 295 289 94 252 294 298 305 314 310 302 292 281 271 262 255 247 239 232 228 226 224 221 220 222 224 226 235 243 257 270 280 288
65 262 239 224 71 326 248 227 207 238 225 243 280 282 71 257 291 299 308 312 310 305 295 285 275 263 254 247 242 235 229 225 223 221 221 223 224 222 228 238 249 259 269 277
174 229 256 186 173 185 225 216 217 238 244 225 240 257 103 143 314 310 307 308 308 304 299 292 279 264 257 252 247 240 232 227 222 218 220 223 225 225 230 237 245 252 261 269
200 236 246 269 328 186 225 217 208 208 225 235 237 258 263 288 307 308 306 304 303 299 292 288 284 276 266 259 252 245 238 229 221 217 221 225 226 226 230 233 239 247 255 262
232 256 256 268 270 259 257 249 227 222 231 247 260 267 278 293 300 299 298 299 300 298 296 291 287 283 276 266 258 250 242 228 218 218 223 227 227 225 226 228 233 241 249 256
244 266 282 274 260 266 265 254 243 240 242 249 265 276 285 295 292 293 299 302 300 298 299 298 293 284 277 270 263 254 245 230 218 222 225 223 220 219 221 224 228 234 241 246
214 238 279 279 307 295 267 247 221 219 224 231 245 255 282 288 293 301 304 299 296 300 301 299 294 285 279 274 267 257 249 234 223 226 227 221 218 219 220 221 226 231 235 240
206 204 254 292 306 256 252 104 207 223 242 232 247 265 276 287 299 294 284 281 291 302 303 300 295 288 281 276 267 257 244 230 226 228 227 220 217 220 221 222 228 232 234 239
220 216 242 263 280 280 283 210 193 220 266 234 241 263 282 299 295 280 267 275 294 298 297 294 290 284 277 270 262 251 240 231 229 231 229 222 217 219 219 223 227 228 230 237
188 224 236 235 259 263 317 127 162 221 262 162 229 288 305 304 295 307 313 304 301 299 297 294 292 283 273 269 258 246 242 236 235 235 233 226 219 220 222 224 225 224 226 234
168 196 221 232 249 269 277 152 169 243 351 45 291 305 300 286 289 306 307 301 299 298 295 293 287 277 271 268 254 248 246 243 242 239 233 225 220 221 223 223 220 219 221 229
194 191 202 205 225 253 166 159 211 299 334 303 305 304 297 291 295 298 299 297 296 296 293 291 284 279 275 260 246 249 251 252 245 235 230 226 222 219 217 216 216 215 218 226
216 212 208 212 229 274 179 228 278 298 293 298 301 301 299 295 293 298 298 295 295 293 292 289 282 281 277 260 245 251 257 253 241 233 230 227 220 217 215 215 213 213 215 224
228 218 235 252 260 264 266 270 274 278 285 292 296 297 295 291 292 295 295 294 293 292 290 286 281 277 276 270 257 255 260 249 237 234 231 224 219 217 214 214 214 214 215 220
236 196 231 256 271 283 270 264 277 290 293 294 295 294 291 289 289 292 292 291 290 290 289 283 276 275 277 277 268 262 254 238 235 234 230 224 221 219 218 218 218 220 224 227
216 220 234 256 269 276 288 293 294 291 294 298 299 297 294 288 287 289 288 287 287 287 289 285 279 277 278 276 271 265 251 234 231 232 228 222 218 218 220 221 226 226 233 237